Theta_e
322 319 325 322 309 307 300 300 305 305 306 312 314 311 309 311 308 303 319 325 334 336 345 345 347 351 351 350 350 350 351 352 352 351 351 349 350 351 351 352 351 351 351 350 350 349 348 347 347
317 318 323 318 304 298 299 303 303 309 313 315 314 311 311 308 314 312 313 322 328 336 341 344 344 348 351 349 349 349 350 351 351 351 350 348 348 348 351 351 349 350 349 349 349 348 347 346 346
317 321 315 310 305 299 300 305 310 313 315 313 312 315 313 311 308 307 311 314 318 326 337 343 343 347 348 349 349 348 348 349 350 350 349 349 349 347 351 351 350 349 349 349 348 348 345 345 346
316 319 317 304 300 305 308 310 313 313 315 316 315 310 308 306 305 306 309 310 309 318 329 341 344 347 348 348 348 348 347 347 347 349 350 349 350 347 349 349 349 349 349 349 348 347 346 346 345
314 315 306 303 305 308 312 314 313 310 308 311 313 309 299 301 305 305 306 308 307 313 323 341 343 345 346 346 348 347 347 346 346 346 347 349 349 349 348 348 348 349 348 348 348 347 345 344 344
307 311 302 300 304 308 310 310 306 306 306 302 302 303 295 302 302 304 306 306 308 307 310 313 331 339 342 344 345 345 346 346 346 346 346 346 346 347 347 347 347 347 347 347 347 345 341 343 342
303 304 301 302 303 303 304 306 298 298 299 296 298 294 296 296 300 303 304 305 305 305 305 305 306 310 321 338 339 341 342 343 343 344 344 343 342 343 343 344 345 346 346 345 346 343 338 342 341
303 302 298 298 296 293 296 298 297 295 294 299 298 290 288 294 299 302 302 301 301 302 303 302 303 304 305 309 330 334 337 338 339 339 338 336 336 337 338 337 340 344 345 346 345 342 340 341 338
306 293 290 291 292 291 295 293 297 297 295 293 293 291 294 297 298 297 297 297 298 299 300 300 300 301 303 306 308 319 331 333 333 334 331 330 337 339 336 335 336 341 343 344 343 342 340 337 334
295 291 290 292 291 290 293 293 292 292 289 287 288 292 295 295 294 293 292 292 293 294 296 298 298 299 300 303 304 308 324 336 336 337 336 335 338 337 336 331 330 334 336 340 342 340 336 331 332
296 291 293 290 292 292 291 291 290 287 284 285 286 289 292 292 292 291 291 291 291 293 294 295 295 297 297 299 301 303 306 315 336 339 337 337 339 337 335 331 330 333 325 337 338 337 336 333 331
292 293 293 291 289 289 288 291 287 287 285 290 290 291 291 290 290 289 289 289 290 290 292 293 293 294 295 297 298 299 301 304 311 332 339 338 337 336 333 332 331 332 333 334 335 336 335 333 332
292 292 292 289 290 286 288 287 286 286 289 291 291 291 289 289 289 289 290 289 289 289 290 291 292 292 293 294 295 297 298 301 304 310 329 337 336 335 335 333 332 333 332 332 332 332 333 333 330
292 292 289 287 287 285 284 285 288 286 289 289 290 289 289 289 288 288 288 288 288 289 289 290 290 291 291 292 292 294 297 300 302 305 309 319 335 336 335 335 333 332 334 333 331 330 330 331 326
291 286 287 283 283 283 283 283 282 285 288 287 287 287 288 288 289 287 288 288 288 288 288 288 289 290 289 290 291 293 296 299 299 302 306 314 324 334 335 334 334 332 332 334 333 331 324 324 321
286 285 281 280 282 283 282 278 283 284 284 284 285 284 286 288 288 288 288 288 288 288 287 288 289 288 288 289 290 293 294 295 297 300 302 304 307 308 330 333 332 333 332 333 330 328 324 322 319
280 277 278 277 282 281 281 278 283 285 284 282 282 283 284 285 286 287 287 287 288 288 288 287 288 287 287 288 290 290 292 294 295 296 299 301 302 307 308 319 332 333 332 331 331 329 326 321 319
274 275 277 275 278 280 280 279 282 283 282 280 281 282 283 284 284 286 287 288 288 288 288 288 287 287 287 288 288 289 290 291 292 294 296 300 299 301 303 307 310 331 331 330 330 329 325 323 320
277 276 274 276 279 277 277 277 280 282 280 279 279 281 281 282 285 286 286 286 286 287 287 287 286 286 286 285 285 285 285 287 290 293 294 294 295 296 298 302 305 306 328 329 329 328 326 323 323
277 273 274 277 279 277 277 276 280 282 281 280 280 280 280 281 282 284 285 285 285 285 286 286 286 286 286 286 286 285 285 286 288 290 290 292 293 294 297 298 302 305 306 326 328 326 324 321 321
274 272 272 272 276 278 275 274 277 282 283 283 282 281 281 280 281 282 282 283 283 284 284 285 286 286 286 286 286 285 285 285 285 285 287 289 290 293 294 295 298 301 306 308 326 326 323 307 308
274 275 274 274 272 270 276 268 275 279 280 283 282 279 279 280 281 282 282 282 282 283 284 285 285 285 286 286 285 283 282 281 283 284 285 286 288 289 291 293 296 297 301 306 309 326 323 318 310
272 275 274 274 272 270 273 268 272 280 278 279 280 279 278 278 280 280 281 283 283 283 282 283 284 284 285 285 284 283 282 283 284 284 284 284 286 287 289 290 291 292 296 298 301 314 322 320 316
275 274 274 274 272 266 272 269 269 274 277 279 280 279 279 278 278 279 281 283 282 282 282 282 283 283 284 284 284 283 282 282 282 283 283 284 284 285 286 287 288 290 292 295 299 300 322 321 321
274 272 269 266 264 269 272 268 270 278 279 279 279 279 277 278 278 279 279 280 280 280 281 282 281 281 282 282 283 283 282 282 281 282 282 283 283 284 284 285 286 287 290 293 297 301 309 320 319
272 270 267 262 267 268 272 268 271 280 281 280 280 279 280 278 279 279 279 280 280 280 280 280 280 279 280 280 281 282 282 282 282 282 282 283 283 284 285 285 286 287 290 293 297 302 310 319 318
271 269 270 264 265 263 269 272 276 279 278 278 278 279 278 277 279 279 280 280 280 280 279 279 278 279 279 279 279 279 280 281 281 281 282 282 282 284 284 285 285 286 287 289 289 296 307 318 317
271 273 267 267 259 260 271 269 271 275 276 278 278 278 278 279 279 279 280 280 280 280 280 279 278 278 278 278 278 278 278 279 279 280 280 280 281 282 283 283 284 284 285 286 288 289 293 311 315
268 268 269 269 267 263 264 267 274 275 278 278 278 279 277 277 278 279 280 280 280 280 280 279 278 277 277 277 277 277 277 277 277 278 278 278 279 280 281 282 283 283 283 285 286 287 290 291 311
271 270 270 264 263 265 266 264 278 276 277 277 276 277 278 279 278 278 279 280 280 280 279 278 278 276 276 277 276 276 276 276 275 276 276 277 277 278 278 280 281 282 282 283 285 285 287 289 295
Wind_Speed
16 13 6 3 3 4 5 5 5 5 7 8 5 5 5 6 8 7 5 13 8 8 11 8 2 4 7 8 7 5 4 8 8 8 8 8 8 8 8 8 8 7 10 10 12 12 11 10 11
8 12 4 4 3 5 5 9 6 11 9 8 5 1 4 13 15 9 12 14 18 11 6 8 7 4 2 6 7 5 3 5 7 9 9 9 8 8 8 8 7 8 8 9 10 10 12 9 10
11 9 3 3 4 5 2 2 10 9 11 3 4 4 7 7 17 8 14 13 12 13 12 8 12 10 5 4 7 8 5 4 6 8 9 9 8 8 7 7 6 8 8 8 8 9 10 9 9
5 3 4 3 9 10 7 7 10 10 6 6 5 5 16 24 11 15 17 15 10 10 9 4 6 7 6 6 7 8 8 6 6 7 7 8 9 10 9 8 7 6 6 7 8 9 10 9 9
3 4 3 5 10 7 12 8 5 6 4 11 6 7 17 24 19 17 15 13 11 10 9 8 6 3 5 8 7 7 8 8 8 8 8 8 8 8 9 9 9 8 8 8 8 8 9 10 10
3 2 4 7 4 4 7 4 5 5 10 15 10 9 12 17 26 20 16 18 20 20 19 21 7 1 5 7 9 9 9 10 10 9 9 9 9 9 9 9 10 10 9 9 10 11 11 11 10
2 3 6 9 12 5 7 8 14 11 15 17 10 8 7 28 23 18 17 21 23 25 23 20 21 23 16 7 7 8 10 11 11 11 10 9 10 10 11 11 12 13 13 12 12 13 13 12 11
4 2 4 4 5 8 8 5 9 12 7 8 15 9 12 20 19 19 20 20 19 20 19 20 20 20 19 19 10 13 10 11 12 11 10 10 11 10 11 11 11 13 14 14 14 14 16 15 12
3 2 3 6 7 7 9 9 14 7 5 14 13 14 14 16 20 17 18 18 17 17 19 18 19 19 20 18 18 17 11 9 10 11 10 7 6 8 10 10 11 13 12 12 15 15 14 14 13
2 1 6 10 10 7 9 9 8 7 14 10 17 16 16 16 14 17 17 16 17 19 18 17 17 18 17 15 17 17 13 5 6 9 9 7 9 8 9 12 15 12 12 11 12 15 14 12 6
1 3 4 10 9 9 8 10 10 9 10 9 14 16 16 16 16 15 14 15 15 15 14 17 17 17 16 15 12 9 9 11 4 7 9 9 8 7 8 4 6 8 8 6 7 8 7 9 7
2 8 9 8 8 4 3 5 12 13 5 10 8 9 12 15 15 16 15 14 16 16 16 17 18 16 15 12 10 12 10 11 10 9 7 7 6 6 7 6 5 8 7 9 8 6 8 9 9
2 7 12 10 6 8 5 5 13 10 7 8 7 10 11 13 14 13 14 13 14 15 17 17 16 16 15 14 12 12 12 10 11 11 13 5 7 8 7 8 7 7 8 8 9 8 9 10 10
6 8 11 10 6 7 6 5 6 7 5 7 8 9 10 12 13 12 15 15 15 15 16 17 16 16 16 15 16 12 11 12 12 10 11 18 7 8 8 8 8 7 8 9 9 10 8 9 9
3 9 7 9 8 5 7 9 7 4 6 7 8 7 8 11 12 13 13 14 15 14 15 16 17 17 17 16 14 12 11 12 12 12 14 15 16 10 9 8 8 5 5 8 6 7 5 5 6
5 3 5 5 8 2 4 7 5 2 5 7 7 6 7 8 8 10 11 13 14 14 16 15 14 16 17 16 13 11 12 12 11 12 13 16 16 20 13 8 7 8 7 5 6 8 7 7 7
4 2 4 5 5 5 3 8 6 1 4 6 6 7 7 7 8 8 9 9 12 13 16 16 15 16 17 15 12 13 14 10 11 12 11 16 17 16 12 14 9 9 9 9 8 8 9 9 8
3 5 4 4 6 7 4 6 5 3 3 5 6 6 7 7 9 8 9 8 9 10 13 14 13 16 14 11 12 10 10 11 11 11 12 17 15 18 16 13 16 9 9 11 11 14 11 11 10
4 3 3 6 3 4 3 5 6 6 1 4 5 6 7 8 8 8 8 8 8 9 12 14 15 16 13 11 11 12 13 13 12 11 17 18 16 18 16 13 14 14 12 12 12 12 14 12 12
6 1 5 5 2 4 4 7 6 7 3 2 4 5 6 7 8 8 9 9 8 10 11 13 13 14 12 10 9 8 10 9 11 12 15 16 18 18 15 15 14 14 13 15 14 13 10 8 12
8 5 4 3 5 8 5 7 8 8 6 6 3 3 6 7 8 8 9 9 8 9 11 12 13 13 12 14 9 9 8 8 10 13 12 14 18 18 18 18 14 15 14 12 15 15 19 7 3
4 5 3 4 4 0 5 4 7 10 10 10 6 3 5 6 6 6 7 8 8 8 8 9 11 12 12 14 12 13 11 13 11 11 13 15 17 18 18 18 17 15 14 16 16 13 13 9 11
4 3 3 2 4 4 7 2 1 11 9 8 8 4 4 3 4 5 5 5 5 6 7 7 8 10 11 12 12 10 11 9 10 11 16 16 15 16 17 18 18 17 13 15 19 22 14 13 12
3 2 4 4 3 1 6 1 5 8 10 7 6 5 2 1 1 3 4 4 4 5 5 6 8 9 10 11 12 13 13 14 12 13 13 12 13 14 16 19 17 17 16 16 17 20 19 15 15
6 3 1 2 2 4 6 1 10 5 5 7 8 6 1 3 2 2 4 4 4 5 6 6 7 8 9 10 11 11 12 13 14 14 12 16 13 13 17 21 21 17 18 18 18 19 23 17 17
2 1 3 5 2 1 4 7 8 4 8 6 5 4 5 5 2 3 4 3 3 4 4 5 6 6 7 7 9 9 10 8 9 11 12 11 11 13 19 20 20 20 20 19 19 15 18 15 14
0 1 1 4 2 3 6 6 4 6 6 6 7 6 7 3 4 6 5 3 3 4 5 4 5 6 6 6 6 8 9 10 10 12 12 11 13 13 17 19 21 20 20 20 21 16 20 19 15
2 2 2 2 2 5 5 3 8 8 9 8 8 9 9 6 5 5 5 4 2 3 5 4 5 5 5 6 5 7 7 8 9 10 12 13 14 16 17 18 20 20 20 20 22 19 17 18 12
2 2 1 1 2 4 3 8 4 4 9 10 10 9 6 3 7 6 6 5 4 4 5 4 4 5 6 6 6 6 6 6 7 9 10 12 13 16 17 17 18 19 20 20 20 22 21 17 18
2 2 6 5 5 4 2 11 4 5 3 7 3 3 6 8 8 5 6 7 6 7 5 5 4 4 4 5 6 6 6 6 7 9 10 11 13 13 16 16 17 18 19 20 21 24 22 17 23
Wind_Direction
308 309 302 290 252 218 213 92 87 123 116 36 26 2 351 29 44 71 42 6 24 25 113 150 172 180 167 151 147 157 180 177 183 186 182 184 184 182 182 181 181 181 186 176 172 168 152 138 116
304 300 260 272 249 256 40 128 128 75 58 353 357 257 13 59 40 72 23 11 16 35 56 145 147 312 222 163 161 156 220 215 201 192 197 201 199 199 194 190 194 197 193 180 175 167 147 134 131
272 275 290 273 248 277 138 26 84 86 93 19 345 338 30 360 48 28 6 10 18 32 24 102 159 181 221 230 184 171 193 236 242 221 212 215 214 212 214 191 192 204 202 194 187 181 155 146 154
318 225 242 248 273 300 95 334 30 26 100 117 50 104 69 37 37 17 356 355 8 36 40 79 145 181 217 217 217 188 181 221 225 230 237 220 214 218 219 200 199 212 211 198 192 177 164 159 161
226 259 254 255 262 12 24 85 331 15 25 53 26 77 74 25 17 8 353 352 7 35 22 82 123 166 266 274 256 214 196 209 234 232 225 226 233 222 221 208 199 210 209 202 196 180 167 170 174
269 262 255 249 195 109 30 338 358 57 57 30 26 339 70 16 13 3 2 18 28 26 20 19 36 194 248 278 270 247 224 213 219 232 229 224 222 223 223 225 212 217 219 219 203 183 193 175 175
261 249 256 283 302 91 84 69 28 7 38 30 356 2 67 10 355 355 4 23 22 18 24 14 7 8 339 258 259 270 249 235 226 226 222 227 224 221 221 221 219 219 221 223 208 189 193 177 172
316 271 283 263 258 72 19 30 40 35 1 67 26 26 353 353 352 15 16 21 15 13 12 11 4 360 354 343 260 237 232 230 231 230 232 224 219 225 223 221 221 219 223 220 212 189 178 181 177
305 302 252 0 19 79 34 18 23 324 8 69 30 36 1 352 10 11 15 13 11 8 4 6 2 355 350 346 345 323 227 223 233 232 222 238 241 225 223 221 223 220 222 226 214 187 186 180 177
260 260 50 39 23 32 40 24 360 4 44 5 4 12 5 6 10 16 9 8 6 2 0 3 357 353 348 345 343 336 330 207 224 225 229 221 233 228 234 214 213 219 213 219 200 189 184 174 177
1 23 133 58 41 25 40 46 38 6 64 11 7 356 354 11 13 17 16 5 1 358 356 357 356 349 350 345 340 339 335 337 260 223 228 225 224 226 227 218 209 209 207 215 216 202 194 190 173
189 75 58 75 60 42 21 312 82 51 27 38 7 2 10 18 16 16 11 6 1 358 358 354 353 349 350 342 341 335 334 335 334 315 227 232 231 224 226 221 194 199 201 209 209 201 188 190 190
254 93 89 78 81 47 288 26 92 47 51 50 29 24 26 26 21 17 11 9 4 0 355 356 350 350 347 347 340 335 330 328 326 326 310 248 238 232 225 226 209 194 198 200 211 207 196 189 183
69 74 74 47 47 54 22 30 114 28 47 67 49 37 35 31 27 16 14 9 8 2 1 354 351 354 347 346 340 331 324 325 327 327 320 318 267 240 238 228 224 212 194 206 200 213 200 186 178
119 126 130 35 348 56 328 67 62 5 71 71 70 49 32 33 27 22 13 9 5 4 1 360 355 353 352 343 336 329 330 330 331 323 324 318 318 268 239 248 237 224 202 196 198 172 157 182 180
179 244 162 54 5 53 288 113 100 50 48 66 63 57 51 52 33 21 17 10 4 4 4 0 358 357 350 344 338 337 339 331 327 335 331 330 333 343 293 236 234 240 238 215 179 171 178 190 182
209 178 101 125 44 301 277 130 128 48 75 55 46 39 33 30 35 37 28 16 5 5 360 0 1 360 350 345 345 340 333 334 330 331 330 335 325 332 333 321 251 224 230 216 210 198 197 189 192
91 114 120 65 38 325 56 116 154 122 51 56 35 24 18 15 21 31 28 24 7 8 3 360 1 358 354 353 345 341 339 340 334 332 324 341 342 335 338 330 333 256 223 227 216 214 200 196 189
66 100 69 103 87 312 117 300 205 167 259 31 16 17 14 16 16 19 18 19 12 10 6 3 0 358 358 357 352 350 343 335 336 331 346 333 335 332 333 325 328 325 257 224 218 212 211 209 193
22 192 71 102 95 336 275 264 235 184 207 303 332 12 16 11 11 9 12 16 12 8 3 1 4 360 0 354 350 347 334 333 328 340 332 334 334 329 326 327 320 318 311 268 224 216 219 221 186
53 32 17 338 328 246 276 265 229 199 206 212 237 32 29 22 6 3 6 11 5 12 3 1 360 358 2 355 346 346 341 338 339 339 335 336 331 328 327 325 322 317 312 300 260 222 208 171 232
133 34 286 261 282 205 179 281 200 193 206 214 186 77 35 19 12 9 11 5 1 8 0 358 0 357 0 356 354 357 351 346 342 335 329 330 335 330 326 324 327 324 317 303 313 230 216 193 199
85 331 274 277 266 20 192 220 176 176 204 194 161 153 84 36 14 11 18 8 8 7 357 351 358 359 359 1 359 354 353 342 338 338 336 335 334 333 330 329 327 320 314 309 290 297 204 206 193
287 242 188 218 246 342 141 165 224 180 202 148 145 172 107 22 310 19 20 7 6 6 355 348 1 353 357 1 358 358 354 345 343 344 342 341 337 334 334 332 324 321 313 308 308 305 236 210 223
232 221 156 351 16 229 119 294 246 164 127 149 163 173 171 263 298 335 342 347 350 1 353 350 360 350 352 357 354 353 352 349 343 342 342 340 337 338 335 335 331 324 316 308 299 287 294 212 217
12 87 153 202 225 100 132 238 253 132 141 138 157 192 233 252 322 309 302 311 333 342 348 346 340 337 345 349 346 344 349 348 343 341 339 338 338 333 335 335 333 328 325 320 307 293 294 226 216
1 218 55 98 92 48 232 271 22 135 166 178 206 220 237 249 273 268 282 276 314 318 318 321 327 328 334 344 340 337 343 347 342 341 343 339 334 336 338 337 338 336 334 335 329 306 310 243 214
10 154 103 346 128 261 253 255 242 203 207 204 218 224 234 217 271 290 296 290 261 285 282 305 317 318 319 333 334 333 329 338 337 334 337 339 335 335 339 340 341 340 340 339 339 328 318 291 222
146 200 236 40 158 198 276 263 241 116 188 195 205 206 186 236 262 250 256 246 241 256 268 280 294 310 318 323 321 318 318 332 333 331 332 332 331 335 336 341 340 341 341 341 343 333 320 332 262
330 240 173 142 228 236 150 265 153 127 82 95 67 181 201 230 259 250 256 243 226 234 252 266 276 288 294 309 314 311 316 333 332 330 329 331 329 331 332 334 339 343 342 341 346 335 324 340 326